| time (UTC) | temp F | wind direction | speed MPH | gust MPH | rain 1hr in | rain 24hr in | rain mn in | humidity % | barometer mb |
| 20260831190316 | 97 | 58 | 5.0 | 8.0 | 0.00 | 0.00 | 0.00 | 61 | 1019.7 |
| 20260831185310 | 96 | 65 | 4.0 | 8.0 | 0.00 | 0.00 | 0.00 | 61 | 1019.8 |
| 20260831184310 | 96 | 88 | 3.0 | 7.0 | 0.00 | 0.00 | 0.00 | 60 | 1019.8 |
| 20260831183324 | 96 | 97 | 3.0 | 10.0 | 0.00 | 0.00 | 0.00 | 61 | 1019.9 |
| 20260831182323 | 96 | 163 | 3.0 | 8.0 | 0.00 | 0.00 | 0.00 | 61 | 1020.1 |
| 20260831181314 | 95 | 113 | 3.0 | 7.0 | 0.00 | 0.00 | 0.00 | 63 | 1020.1 |
| 20260831180333 | 96 | 301 | 3.0 | 6.0 | 0.00 | 0.00 | 0.00 | 62 | 1020.4 |
| 20260831175309 | 96 | 146 | 4.0 | 5.0 | 0.00 | 0.00 | 0.00 | 62 | 1020.4 |
| 20260831174321 | 96 | 173 | 2.0 | 5.0 | 0.00 | 0.00 | 0.00 | 63 | 1020.4 |
| 20260831173318 | 95 | 355 | 2.0 | 5.0 | 0.00 | 0.00 | 0.00 | 67 | 1020.5 |
| 20260831172335 | 95 | 327 | 3.0 | 6.0 | 0.00 | 0.00 | 0.00 | 63 | 1020.5 |
| 20260831171326 | 94 | 42 | 2.0 | 5.0 | 0.00 | 0.00 | 0.00 | 63 | 1020.6 |
| 20260831170345 | 94 | 328 | 1.0 | 6.0 | 0.00 | 0.00 | 0.00 | 66 | 1020.7 |
| 20260831165316 | 93 | 46 | 5.0 | 7.0 | 0.00 | 0.00 | 0.00 | 65 | 1020.8 |
| 20260831164315 | 92 | 278 | 2.0 | 4.0 | 0.00 | 0.00 | 0.00 | 67 | 1020.7 |
| 20260831163315 | 93 | 281 | 3.0 | 6.0 | 0.00 | 0.00 | 0.00 | 67 | 1020.8 |
| 20260831162326 | 93 | 66 | 2.0 | 5.0 | 0.00 | 0.00 | 0.00 | 66 | 1021.0 |
| 20260831161324 | 92 | 9 | 4.0 | 6.0 | 0.00 | 0.00 | 0.00 | 66 | 1021.1 |
| 20260831160314 | 91 | 328 | 3.0 | 5.0 | 0.00 | 0.00 | 0.00 | 68 | 1021.2 |
| 20260831155330 | 90 | 258 | 1.0 | 5.0 | 0.00 | 0.00 | 0.00 | 68 | 1021.2 |
| 20260831154324 | 90 | 334 | 3.0 | 4.0 | 0.00 | 0.00 | 0.00 | 70 | 1021.4 |
| 20260831153319 | 89 | 334 | 1.0 | 5.0 | 0.00 | 0.00 | 0.00 | 70 | 1021.4 |
| 20260831152342 | 90 | 283 | 2.0 | 6.0 | 0.00 | 0.00 | 0.00 | 69 | 1021.3 |
| 20260831151318 | 89 | 345 | 2.0 | 6.0 | 0.00 | 0.00 | 0.00 | 72 | 1021.4 |
| 20260831150330 | 89 | 269 | 2.0 | 7.0 | 0.00 | 0.00 | 0.00 | 70 | 1021.5 |
| 20260831145326 | 88 | 360 | 2.0 | 4.0 | 0.00 | 0.00 | 0.00 | 74 | 1021.3 |
| 20260831144314 | 88 | 95 | 2.0 | 4.0 | 0.00 | 0.00 | 0.00 | 74 | 1021.2 |
| 20260831142353 | 86 | 11 | 2.0 | 5.0 | 0.00 | 0.00 | 0.00 | 78 | 1021.1 |
| 20260831141319 | 86 | 318 | 2.0 | 5.0 | 0.00 | 0.00 | 0.00 | 79 | 1021.1 |
| 20260831140315 | 85 | 248 | 3.0 | 7.0 | 0.00 | 0.00 | 0.00 | 81 | 1021.0 |
| 20260831135324 | 84 | 244 | 2.0 | 6.0 | 0.00 | 0.00 | 0.00 | 82 | 1021.0 |
| 20260831134321 | 83 | 279 | 3.0 | 5.0 | 0.00 | 0.00 | 0.00 | 84 | 1021.0 |
| 20260831133309 | 82 | 338 | 3.0 | 5.0 | 0.00 | 0.00 | 0.00 | 86 | 1020.8 |
| 20260831132327 | 82 | 329 | 2.0 | 5.0 | 0.00 | 0.00 | 0.00 | 89 | 1020.9 |
| 20260831131317 | 81 | 347 | 2.0 | 7.0 | 0.00 | 0.00 | 0.00 | 90 | 1020.9 |
| 20260831130333 | 80 | 292 | 2.0 | 6.0 | 0.00 | 0.00 | 0.00 | 91 | 1020.9 |
| 20260831125321 | 79 | 273 | 2.0 | 5.0 | 0.00 | 0.00 | 0.00 | 93 | 1020.9 |
| 20260831124319 | 78 | 302 | 3.0 | 4.0 | 0.00 | 0.00 | 0.00 | 94 | 1020.9 |
| 20260831123315 | 77 | 277 | 2.0 | 4.0 | 0.00 | 0.00 | 0.00 | 95 | 1021.0 |
| 20260831122319 | 77 | 325 | 3.0 | 4.0 | 0.00 | 0.00 | 0.00 | 96 | 1020.9 |
| 20260831121317 | 76 | 268 | 4.0 | 7.0 | 0.00 | 0.00 | 0.00 | 96 | 1020.9 |
| 20260831120314 | 76 | 278 | 3.0 | 4.0 | 0.00 | 0.00 | 0.00 | 96 | 1020.8 |
| 20260831115317 | 76 | 277 | 2.0 | 4.0 | 0.00 | 0.00 | 0.00 | 96 | 1020.8 |
| 20260831114313 | 75 | 270 | 2.0 | 6.0 | 0.00 | 0.00 | 0.00 | 96 | 1020.8 |
| 20260831113309 | 75 | 271 | 2.0 | 4.0 | 0.00 | 0.00 | 0.00 | 95 | 1020.8 |
| 20260831112312 | 75 | 310 | 2.0 | 5.0 | 0.00 | 0.00 | 0.00 | 95 | 1020.8 |
| 20260831111309 | 75 | 283 | 3.0 | 6.0 | 0.00 | 0.00 | 0.00 | 95 | 1020.9 |
| 20260831110334 | 75 | 283 | 3.0 | 6.0 | 0.00 | 0.00 | 0.00 | 95 | 1020.7 |
| 20260831105310 | 75 | 244 | 2.0 | 4.0 | 0.00 | 0.00 | 0.00 | 95 | 1020.6 |
| 20260831104326 | 75 | 246 | 3.0 | 4.0 | 0.00 | 0.00 | 0.00 | 95 | 1020.6 |
| 20260831103324 | 75 | 288 | 2.0 | 4.0 | 0.00 | 0.00 | 0.00 | 95 | 1020.5 |
| 20260831102318 | 74 | 317 | 1.0 | 2.0 | 0.00 | 0.00 | 0.00 | 95 | 1020.5 |
| 20260831101341 | 75 | 329 | 1.0 | 2.0 | 0.00 | 0.00 | 0.00 | 95 | 1020.4 |
| 20260831100316 | 75 | 124 | 0.0 | 3.0 | 0.00 | 0.00 | 0.00 | 94 | 1020.4 |
| 20260831095310 | 75 | 180 | 0.0 | 2.0 | 0.00 | 0.00 | 0.00 | 94 | 1020.4 |
| 20260831094319 | 75 | 248 | 0.0 | 2.0 | 0.00 | 0.00 | 0.00 | 95 | 1020.4 |
| 20260831093316 | 75 | 281 | 1.0 | 3.0 | 0.00 | 0.00 | 0.00 | 95 | 1020.4 |
| 20260831092321 | 75 | 267 | 1.0 | 3.0 | 0.00 | 0.00 | 0.00 | 95 | 1020.4 |
| 20260831091316 | 75 | 275 | 1.0 | 3.0 | 0.00 | 0.00 | 0.00 | 95 | 1020.4 |
| 20260831090311 | 75 | 279 | 1.0 | 2.0 | 0.00 | 0.00 | 0.00 | 95 | 1020.3 |
| 20260831085313 | 75 | 238 | 1.0 | 2.0 | 0.00 | 0.00 | 0.00 | 95 | 1020.4 |
| 20260831084308 | 75 | 278 | 1.0 | 2.0 | 0.00 | 0.00 | 0.00 | 95 | 1020.4 |
| 20260831083331 | 75 | 301 | 1.0 | 2.0 | 0.00 | 0.00 | 0.00 | 95 | 1020.6 |
| 20260831082328 | 75 | 301 | 1.0 | 2.0 | 0.00 | 0.00 | 0.00 | 95 | 1020.6 |
| 20260831081323 | 75 | 301 | 0.0 | 2.0 | 0.00 | 0.00 | 0.00 | 94 | 1020.7 |
| 20260831080326 | 75 | 302 | 1.0 | 2.0 | 0.00 | 0.00 | 0.00 | 94 | 1020.6 |
| 20260831075321 | 76 | 302 | 1.0 | 2.0 | 0.00 | 0.00 | 0.00 | 94 | 1020.5 |
| 20260831074345 | 76 | 213 | 1.0 | 2.0 | 0.00 | 0.00 | 0.00 | 94 | 1020.5 |
| 20260831073320 | 76 | 196 | 0.0 | 1.0 | 0.00 | 0.00 | 0.00 | 94 | 1020.5 |
| 20260831072316 | 76 | 211 | 0.0 | 2.0 | 0.00 | 0.00 | 0.00 | 94 | 1020.5 |
| 20260831071341 | 76 | 211 | 1.0 | 2.0 | 0.00 | 0.00 | 0.00 | 94 | 1020.5 |
| 20260831070324 | 76 | 211 | 1.0 | 2.0 | 0.00 | 0.00 | 0.00 | 94 | 1020.5 |
| 20260831065317 | 76 | 63 | 1.0 | 3.0 | 0.00 | 0.00 | 0.00 | 94 | 1020.6 |
| 20260831064311 | 76 | 318 | 1.0 | 2.0 | 0.00 | 0.00 | 0.00 | 94 | 1020.8 |
| 20260831063315 | 77 | 240 | 1.0 | 3.0 | 0.00 | 0.00 | 0.00 | 94 | 1020.7 |
| 20260831062309 | 77 | 210 | 2.0 | 4.0 | 0.00 | 0.00 | 0.00 | 94 | 1020.6 |
| 20260831061329 | 77 | 195 | 2.0 | 3.0 | 0.00 | 0.00 | 0.00 | 94 | 1020.8 |
| 20260831060323 | 76 | 235 | 2.0 | 4.0 | 0.00 | 0.00 | 0.00 | 94 | 1020.8 |
| 20260831055318 | 77 | 178 | 2.0 | 5.0 | 0.00 | 0.00 | 0.00 | 94 | 1021.0 |
| 20260831054318 | 77 | 141 | 3.0 | 6.0 | 0.00 | 0.00 | 0.00 | 94 | 1021.0 |
| 20260831053309 | 77 | 182 | 3.0 | 4.0 | 0.00 | 0.00 | 0.00 | 93 | 1021.1 |
| 20260831052333 | 77 | 175 | 2.0 | 5.0 | 0.00 | 0.00 | 0.00 | 93 | 1021.1 |
| 20260831051326 | 77 | 62 | 1.0 | 3.0 | 0.00 | 0.00 | 0.00 | 93 | 1021.2 |
| 20260831050329 | 77 | 92 | 1.0 | 3.0 | 0.00 | 0.00 | 0.00 | 92 | 1021.2 |
| 20260831045324 | 77 | 96 | 1.0 | 2.0 | 0.00 | 0.00 | 0.00 | 92 | 1021.2 |
| 20260831044318 | 77 | 180 | 2.0 | 5.0 | 0.00 | 0.00 | 0.00 | 92 | 1021.1 |
| 20260831043325 | 78 | 167 | 1.0 | 4.0 | 0.00 | 0.00 | 0.00 | 92 | 1021.2 |
| 20260831042317 | 78 | 180 | 2.0 | 3.0 | 0.00 | 0.00 | 0.00 | 92 | 1021.1 |
| 20260831041312 | 78 | 167 | 0.0 | 2.0 | 0.00 | 0.00 | 0.00 | 92 | 1021.2 |
| 20260831040312 | 78 | 146 | 2.0 | 5.0 | 0.00 | 0.00 | 0.00 | 91 | 1021.2 |
| 20260831035326 | 78 | 186 | 0.0 | 3.0 | 0.00 | 0.00 | 0.00 | 90 | 1021.2 |
| 20260831034328 | 78 | 267 | 0.0 | 1.0 | 0.00 | 0.00 | 0.00 | 90 | 1021.3 |
| 20260831033325 | 79 | 266 | 0.0 | 2.0 | 0.00 | 0.00 | 0.00 | 90 | 1021.1 |
| 20260831032323 | 79 | 258 | 1.0 | 2.0 | 0.00 | 0.00 | 0.00 | 90 | 1021.1 |
| 20260831031323 | 79 | 265 | 2.0 | 2.0 | 0.00 | 0.00 | 0.00 | 90 | 1021.1 |
| 20260831030319 | 79 | 254 | 0.0 | 2.0 | 0.00 | 0.00 | 0.00 | 90 | 1021.2 |
| 20260831025323 | 79 | 201 | 1.0 | 1.0 | 0.00 | 0.00 | 0.00 | 89 | 1021.1 |
| 20260831024318 | 79 | 201 | 0.0 | 1.0 | 0.00 | 0.00 | 0.00 | 89 | 1021.1 |
| 20260831023317 | 80 | 201 | 0.0 | 0.0 | 0.00 | 0.00 | 0.00 | 89 | 1021.1 |
| 20260831022340 | 80 | 201 | 0.0 | 3.0 | 0.00 | 0.00 | 0.00 | 89 | 1021.0 |
| 20260831021323 | 80 | 187 | 2.0 | 3.0 | 0.00 | 0.00 | 0.00 | 88 | 1021.0 |
| 20260831020319 | 80 | 175 | 1.0 | 3.0 | 0.00 | 0.00 | 0.00 | 88 | 1021.0 |
| 20260831015344 | 80 | 204 | 2.0 | 3.0 | 0.00 | 0.00 | 0.00 | 88 | 1021.0 |
| 20260831014323 | 80 | 140 | 2.0 | 5.0 | 0.00 | 0.00 | 0.00 | 88 | 1021.0 |
| 20260831013348 | 81 | 80 | 1.0 | 3.0 | 0.00 | 0.00 | 0.00 | 87 | 1020.9 |
| 20260831012323 | 81 | 169 | 2.0 | 6.0 | 0.00 | 0.00 | 0.00 | 86 | 1020.9 |
| 20260831011321 | 81 | 136 | 2.0 | 3.0 | 0.00 | 0.00 | 0.00 | 86 | 1020.8 |
| 20260831010323 | 81 | 32 | 1.0 | 1.0 | 0.00 | 0.00 | 0.00 | 84 | 1020.7 |
| 20260831005319 | 82 | 38 | 0.0 | 1.0 | 0.00 | 0.00 | 0.00 | 84 | 1020.7 |
| 20260831004325 | 82 | 348 | 0.0 | 1.0 | 0.00 | 0.00 | 0.00 | 84 | 1020.7 |
| 20260831003342 | 82 | 348 | 1.0 | 2.0 | 0.00 | 0.00 | 0.00 | 84 | 1020.7 |
| 20260831002345 | 82 | 348 | 1.0 | 2.0 | 0.00 | 0.00 | 0.00 | 83 | 1020.7 |
| 20260831001321 | 83 | 348 | 1.0 | 2.0 | 0.00 | 0.00 | 0.00 | 83 | 1020.7 |
| 20260831000325 | 83 | 338 | 0.0 | 1.0 | 0.00 | 0.00 | 0.00 | 83 | 1020.7 |
| 20260830235322 | 84 | 339 | 1.0 | 2.0 | 0.00 | 0.00 | 0.00 | 82 | 1020.6 |
| 20260830234321 | 84 | 29 | 0.0 | 3.0 | 0.00 | 0.00 | 0.00 | 82 | 1020.7 |
| 20260830233322 | 85 | 67 | 1.0 | 3.0 | 0.00 | 0.00 | 0.00 | 81 | 1020.7 |
| 20260830232339 | 85 | 63 | 2.0 | 3.0 | 0.00 | 0.00 | 0.00 | 81 | 1020.9 |
| 20260830231335 | 85 | 88 | 2.0 | 4.0 | 0.00 | 0.00 | 0.00 | 80 | 1020.8 |
| 20260830230311 | 86 | 25 | 2.0 | 3.0 | 0.00 | 0.00 | 0.00 | 79 | 1020.9 |
| 20260830225335 | 86 | 62 | 2.0 | 3.0 | 0.00 | 0.00 | 0.00 | 78 | 1021.0 |
| 20260830224311 | 86 | 9 | 1.0 | 4.0 | 0.00 | 0.00 | 0.00 | 78 | 1020.9 |
| 20260830223317 | 86 | 67 | 2.0 | 4.0 | 0.00 | 0.00 | 0.00 | 79 | 1020.9 |
| 20260830222314 | 86 | 67 | 2.0 | 4.0 | 0.00 | 0.00 | 0.00 | 78 | 1020.9 |
| 20260830221313 | 86 | 91 | 2.0 | 4.0 | 0.00 | 0.00 | 0.00 | 78 | 1020.8 |
| 20260830220310 | 86 | 59 | 2.0 | 5.0 | 0.00 | 0.00 | 0.00 | 77 | 1020.9 |
| 20260830215334 | 87 | 61 | 1.0 | 5.0 | 0.00 | 0.00 | 0.00 | 75 | 1021.1 |
| 20260830214310 | 87 | 84 | 2.0 | 7.0 | 0.00 | 0.00 | 0.00 | 75 | 1021.0 |
| 20260830213325 | 87 | 116 | 3.0 | 7.0 | 0.00 | 0.00 | 0.00 | 75 | 1020.9 |
| 20260830212327 | 87 | 109 | 3.0 | 7.0 | 0.00 | 0.00 | 0.00 | 74 | 1020.8 |
| 20260830211325 | 88 | 115 | 3.0 | 8.0 | 0.00 | 0.00 | 0.00 | 73 | 1020.7 |
| 20260830210321 | 89 | 117 | 5.0 | 8.0 | 0.00 | 0.00 | 0.00 | 73 | 1020.6 |
| 20260830205320 | 89 | 115 | 3.0 | 6.0 | 0.00 | 0.00 | 0.00 | 74 | 1020.6 |
| 20260830204313 | 89 | 135 | 2.0 | 6.0 | 0.00 | 0.00 | 0.00 | 71 | 1020.9 |
| 20260830203335 | 89 | 128 | 3.0 | 8.0 | 0.00 | 0.00 | 0.00 | 71 | 1020.8 |
| 20260830202326 | 90 | 58 | 4.0 | 6.0 | 0.00 | 0.00 | 0.00 | 69 | 1021.0 |
| 20260830201330 | 90 | 42 | 3.0 | 8.0 | 0.00 | 0.00 | 0.00 | 71 | 1021.1 |
| 20260830200341 | 90 | 49 | 3.0 | 8.0 | 0.00 | 0.00 | 0.00 | 71 | 1021.2 |
| 20260830195322 | 89 | 58 | 2.0 | 6.0 | 0.00 | 0.00 | 0.00 | 71 | 1021.3 |
| 20260830194314 | 89 | 5 | 3.0 | 8.0 | 0.00 | 0.00 | 0.00 | 72 | 1021.5 |
| 20260830193333 | 89 | 46 | 2.0 | 6.0 | 0.00 | 0.00 | 0.00 | 72 | 1021.7 |
| 20260830192328 | 89 | 31 | 3.0 | 4.0 | 0.00 | 0.00 | 0.00 | 73 | 1021.7 |
| 20260830191327 | 88 | 76 | 1.0 | 4.0 | 0.00 | 0.00 | 0.00 | 71 | 1021.7 |